Tracking 19651 objects as of 22-Apr-2019
HD Live streaming from Space Station
objects crossing your sky now

WESTFORD NEEDLES

Track WESTFORD NEEDLES now!
10-day predictions
WESTFORD NEEDLES is classified as:


NORAD ID: 5702
Int'l Code: 1963-014CU
Perigee: 2,260.1 km
Apogee: 4,967.0 km
Inclination: 86.9 °
Period: 165.5 minutes
Semi major axis: 9984 km
RCS: 0.1919 m2 (medium)
Launch date: May 9, 1963
Source: United States (US)
Launch site: AIR FORCE WESTERN TEST RANGE (AFWTR)
aabbcc
Your satellite tracking list
Your tracking list is empty




NASA's NSSDC Master Catalog

Two Line Element Set (TLE):
1  5702U 63014CU  19112.27244926  .00001652  00000-0  29297+0 0  9990
2  5702  86.8801  67.6210 1355512 164.7232 199.9148  8.70183817594402
Source of the keplerian elements: AFSPC